Showing default

ARCTURUS, 56371

Orbit data source: Space-Track

ARCTURUS, 56371 is a payload satellite owned by Astranis (US) in GEO that was launched on Mon, 01 May 2023 UTC via an FALCON HEAVY launch vehicle from the Air Force Eastern Test Range (AFETR). Payload-class satellites include a variety of spacecraft equipped with specific instruments for various scientific and technological missions. These include communications satellites like Starlink; space stations such as the ISS; scientific satellites like the Hubble; Earth observation satellites from companies like Planet Labs, Umbra, and HawkEye 360; GPS; miniature CubeSats for education and research; and military/defense satellites.

Not visible in the next 10 days
Identifier
56371, 2023-060B
Orbit
GEO
Country
Flag of USUS
Related business
Manufacturer
Astranis
Mission
Partially operational Commercial Communications
Bus & Motor
MICROGEO, EP
Mass
400 kg wet, 400 kg dry
Launch date (UTC)
2023-05-01 (3 years ago)
Launch vehicle
FALCON HEAVY
Launch site
Air Force Eastern Test Range (AFETR)
Object type
Payload
Rocket body
Debris
Shape & HBR
Box + 2 Pan, 5.0 m
Radar Cross Section
6.811 m², Large (>1 m²)

Expand to show TLE details & history
Last TLE update: 10 hours ago

TLE from 10 hours ago
0 ARCTURUS
1 56371U 23060B   25303.25158030 -.00000157  00000-0  00000-0 0  9994
2 56371   2.1807  82.8161 0001002 208.4121 176.0622  1.00270406  9158
Epoch: 2025-10-30T06:02Z
TLE epoch observation values (Epoch: 2025-10-30T06:02:16.537Z)
Latitude
0.89208°
Longitude
-22.14229°
Altitude
35,790.562 km
Speed
3.074 km/s
True Right ascension
07h 08m 57s
True Declination
0° 53' 28"
Sunlit
Object was in daylight at epoch
Visualization orbit readout
Latitude
Unknown
Longitude
Unknown
Altitude
Unknown
Speed
Unknown
Apparent Right ascension
Unknown
Apparent Declination
Unknown
Sunlit
N/A
Visualization observer readout
Local Sidereal Time
11:52:25
Azimuth
Unknown
Elevation
Unknown
Doppler factor
Unknown
Orbital elements
Apogee altitude
35,792.275 km
Perigee altitude
35,783.825 km
Semi-major axis
42,166.187 km
Eccentricity
0.0001
Inclination
2.1807°
RAAN
82.8161°
Arg. of periapsis
208.4121°
True anomaly
176.06299°
Mean anomaly
176.0622°
Eccentric anomaly
176.06259°
Mean motion
0.25067 °/min
Orbital period
1,436.17 mins
BSTAR
0
Loading maneuver chart data...
Computing Atmospheric mass density...
Loading historical data...
Loading historical data...
Loading historical data...
Loading historical data...
Loading historical data...
Loading historical data...
Loading historical data...
Other satellites on launch #60 in the year 2023 (2023-05-01 UTC)

Documentation

Showing up to 5 results
|